GEFSNGP_con_maxscp_288.txt.gz
SCP
0 0 0 0 0 0 0 0 0 1 1 1 1 1 2 3 4 4 5 5 5 5 6 8 10 11 11 9 7 6 5 4 3 3 2 2 2 2 2 2 2 2 2 2
0 0 0 0 0 0 1 1 1 1 1 1 1 1 2 4 5 5 5 6 6 6 6 8 11 14 12 9 7 6 6 5 4 3 3 2 2 2 2 2 2 2 2 2
0 0 0 1 0 0 1 1 1 1 1 1 1 2 2 4 5 6 7 9 9 6 6 8 11 14 12 10 7 6 6 5 5 5 4 4 3 3 3 3 3 2 2 2
0 0 1 1 1 0 1 1 1 1 2 2 2 3 3 3 4 6 9 11 9 7 6 8 11 13 12 10 8 6 5 6 6 6 6 5 4 4 4 4 4 3 3 2
0 0 1 1 1 1 1 2 2 2 3 3 4 4 3 3 4 6 9 10 9 8 9 12 16 17 16 12 9 6 5 5 6 7 6 6 5 5 5 5 5 4 4 3
0 1 1 1 1 1 2 3 3 3 3 4 4 5 4 4 5 7 8 9 10 12 14 17 20 20 18 14 10 6 5 6 7 7 7 6 6 5 5 5 5 5 5 5
1 1 1 1 2 2 2 3 4 4 3 3 4 4 4 5 7 9 11 13 14 17 18 19 20 19 16 13 9 6 6 7 8 8 7 7 7 7 6 6 7 7 7 7
1 1 1 1 2 2 2 3 4 4 3 3 4 4 5 7 10 14 16 17 18 19 18 17 16 14 12 9 7 7 9 9 9 9 8 8 8 8 8 8 8 7 7 7
1 1 1 2 3 4 4 5 6 6 6 7 8 11 13 17 21 23 22 19 18 17 15 14 13 11 9 7 8 10 12 10 10 9 8 9 9 9 8 8 7 6 5 5
3 3 3 4 6 7 7 7 8 9 11 14 17 19 22 25 27 27 25 20 16 14 13 13 12 11 10 9 10 14 14 11 10 9 9 9 10 9 8 6 5 4 3 3
8 7 7 8 9 8 7 6 7 10 13 17 19 18 18 20 22 24 23 19 15 13 13 14 14 14 12 10 13 17 16 12 11 10 10 11 10 9 7 5 4 3 3 3
11 11 12 13 11 8 6 5 5 6 9 13 13 12 11 12 15 20 21 18 15 13 14 15 15 14 12 12 15 17 15 13 12 12 11 11 10 7 5 4 2 2 2 2
7 9 11 12 11 9 7 5 4 5 6 9 9 9 9 12 16 20 20 16 13 12 12 13 14 13 12 13 16 16 14 13 14 14 12 11 8 6 4 2 1 1 1 1
2 4 6 8 9 10 8 5 4 4 6 8 9 10 11 14 17 19 18 14 11 10 11 11 11 11 12 13 15 14 12 13 15 15 12 9 7 5 4 2 1 1 0 0
1 2 3 5 7 10 9 6 4 5 6 9 11 13 14 16 17 16 15 13 12 12 11 10 9 10 11 12 12 11 11 12 14 14 11 7 5 4 3 3 2 1 0 0
1 2 2 3 5 9 10 8 7 7 8 10 12 13 14 15 14 13 13 13 13 11 10 8 7 8 8 9 9 9 9 10 12 12 9 6 4 4 3 3 2 2 1 0
1 2 2 2 3 6 8 9 9 10 10 11 12 12 11 11 10 10 11 11 10 8 7 6 5 5 6 7 7 7 8 9 9 9 7 4 3 3 3 3 2 2 1 0
1 1 2 2 2 3 4 6 8 10 10 10 10 10 8 8 8 8 8 7 6 5 4 3 4 4 4 5 6 6 6 7 6 6 5 3 2 2 2 2 2 1 1 0
1 1 1 1 1 1 2 3 5 7 8 8 7 7 7 7 7 8 7 6 4 3 3 3 3 3 3 4 4 4 5 5 4 4 3 1 1 1 1 2 2 1 1 1
1 1 1 1 1 1 1 2 3 4 4 4 4 5 6 7 7 8 8 6 5 4 4 4 4 4 4 4 4 4 3 3 3 3 2 1 0 1 1 1 1 1 1 1
2 2 1 1 0 0 1 1 2 2 2 2 2 4 6 8 8 8 9 8 6 5 5 5 5 4 4 4 4 4 3 3 3 2 1 1 0 0 1 1 1 1 1 1
2 2 1 1 1 1 1 1 2 2 2 2 3 4 7 9 10 10 10 9 8 7 6 6 5 4 4 4 4 4 3 3 2 2 1 0 0 0 0 0 0 0 1 1
2 2 1 1 1 1 1 1 2 3 4 4 5 5 7 8 9 9 9 8 7 6 6 4 3 3 4 4 3 3 2 2 2 1 1 0 0 0 0 0 0 0 0 0
2 2 2 2 2 2 1 1 2 4 5 5 4 5 5 5 5 5 4 4 4 4 3 2 2 2 3 3 2 2 2 2 1 1 1 0 0 0 0 0 0 0 0 0
1 1 1 2 2 2 2 1 1 3 4 4 3 3 3 3 3 2 2 1 1 2 2 1 1 2 2 2 2 2 2 1 1 1 1 0 0 0 0 0 0 0 0 0
1 1 1 2 2 2 2 2 1 2 2 2 2 2 2 2 2 2 2 1 1 1 1 1 1 2 2 2 2 1 1 1 1 1 1 0 0 0 0 0 0 0 0 0
1 1 1 2 2 2 2 2 1 1 1 1 1 1 1 1 1 2 2 2 2 1 1 1 1 1 1 1 1 1 1 1 1 1 1 0 0 0 0 0 0 0 0 0

GEFSNGP_con_maxscp_294.txt.gz
SCP
0 0 0 0 0 0 0 0 0 0 0 1 2 2 2 1 1 1 1 2 2 2 2 2 2 2 3 4 5 5 4 4 4 4 3 2 1 1 1 1 1 1 1 1
0 0 0 0 0 0 0 0 0 0 0 1 2 2 2 1 2 2 2 2 2 2 2 2 2 2 3 4 6 6 5 4 4 4 3 2 2 2 2 1 1 1 2 2
0 0 0 0 0 0 0 0 0 0 0 1 1 2 2 2 3 3 3 3 2 2 2 2 3 3 4 5 6 6 5 4 4 4 3 2 2 2 2 2 2 2 2 2
0 0 0 0 0 1 1 1 1 1 1 1 1 2 3 4 4 5 4 4 4 3 2 3 4 5 5 6 6 5 3 3 3 3 2 2 3 3 3 3 3 3 3 3
0 0 1 1 1 1 1 1 1 2 2 2 2 3 4 4 4 4 4 4 4 3 3 4 6 8 7 6 5 4 3 2 2 2 2 3 3 3 3 3 3 3 3 3
0 0 1 1 1 1 1 1 2 3 4 3 2 2 3 3 2 2 2 3 3 3 3 4 7 9 9 7 5 4 3 3 3 3 3 3 3 3 3 4 4 4 4 4
0 0 0 1 1 1 1 1 2 4 4 4 2 2 2 2 2 2 2 3 3 3 3 4 7 9 9 8 7 5 4 3 3 3 3 4 4 4 4 4 4 4 4 4
0 0 0 1 1 2 1 1 2 4 4 3 3 3 3 4 4 3 3 3 3 3 4 5 7 9 9 9 8 6 5 4 4 3 3 4 5 5 5 6 6 5 5 4
1 1 0 1 1 1 1 2 2 3 3 3 3 3 5 6 5 4 4 4 4 4 5 6 8 10 10 10 9 7 6 6 5 5 6 6 6 6 7 7 7 7 6 5
1 1 1 1 1 1 1 2 2 3 3 4 4 4 6 7 6 4 4 4 4 4 5 6 9 11 12 11 9 7 7 7 9 10 11 10 9 8 8 8 8 8 7 6
2 2 1 1 2 2 2 2 2 3 3 3 4 4 5 7 6 5 5 5 5 5 6 7 9 11 12 12 10 9 10 11 13 15 16 14 11 9 9 8 8 8 7 6
2 2 2 3 3 3 2 2 2 3 3 3 2 3 4 5 5 6 6 6 6 7 6 7 9 10 9 9 9 11 12 15 17 19 19 17 14 10 9 8 7 6 5 5
2 2 3 4 4 4 4 3 3 3 3 2 2 2 3 4 4 5 5 6 6 6 6 6 7 7 6 6 7 8 11 14 16 18 19 17 14 11 9 7 5 4 3 2
1 2 3 4 5 5 4 4 4 4 4 3 2 3 4 4 3 3 4 5 5 5 5 6 7 6 6 6 6 6 7 9 10 12 13 13 12 11 9 7 5 3 1 1
1 2 2 3 5 6 5 4 4 4 4 3 3 3 4 4 3 2 3 4 5 5 5 6 7 7 8 8 7 6 5 5 5 6 7 8 8 8 8 7 6 3 1 1
1 1 1 3 6 9 7 5 4 3 3 3 3 3 4 5 4 3 3 4 5 5 6 7 8 8 9 8 7 6 5 4 4 4 4 5 5 5 5 5 5 4 3 2
1 1 1 2 6 10 11 9 7 5 3 3 3 3 4 5 5 5 5 6 6 6 7 7 7 8 8 8 7 5 5 5 5 5 5 4 3 3 3 3 3 3 3 2
1 1 1 2 4 7 10 10 9 7 5 4 4 4 4 5 5 6 6 7 6 6 6 6 5 5 6 6 6 4 4 6 6 6 5 4 4 3 3 3 2 2 2 1
2 2 2 1 2 3 5 6 7 6 5 5 4 5 5 4 4 5 6 7 6 6 5 4 4 4 4 4 4 3 4 5 6 6 5 4 3 3 3 2 1 0 0 0
2 1 1 1 0 1 1 2 3 3 3 3 4 4 4 3 3 4 6 6 6 5 4 4 3 3 3 3 3 3 4 4 5 5 4 3 3 3 2 1 0 0 0 0
1 1 1 1 0 0 0 0 1 1 1 2 3 3 3 3 4 4 4 4 4 4 3 3 3 3 3 3 4 4 4 4 4 4 4 3 3 2 1 0 0 0 0 0
1 1 1 1 1 1 1 0 0 0 1 1 1 2 3 4 5 5 4 4 4 3 3 3 3 4 4 5 5 5 5 4 3 4 4 3 2 2 1 0 0 0 0 0
1 1 1 1 1 1 1 1 0 1 1 1 1 1 3 5 6 6 5 4 3 3 4 4 3 3 5 6 6 5 4 3 2 3 4 3 2 1 1 0 0 0 0 0
1 1 1 1 1 1 1 1 1 1 2 2 2 2 3 3 4 4 4 3 2 3 3 2 1 3 5 6 5 4 3 2 1 1 2 2 2 1 1 0 0 0 0 0
1 1 1 1 0 1 1 0 1 1 2 2 2 2 2 2 3 3 3 2 2 2 2 1 1 3 4 4 3 3 2 1 1 1 1 1 1 1 0 0 0 0 0 0
1 1 1 0 0 0 0 0 0 1 1 1 2 2 2 2 2 3 2 2 2 2 1 1 2 3 3 3 2 1 1 0 0 0 0 1 1 1 0 0 0 0 0 0
0 0 0 0 0 0 0 0 0 0 1 1 1 1 1 2 2 2 2 1 1 1 2 2 2 2 2 2 1 1 0 0 0 0 0 0 1 1 1 0 0 0 0 0

GEFSNGP_con_maxscp_300.txt.gz
SCP
0 0 0 0 0 0 0 0 0 0 1 2 2 2 3 4 5 4 4 3 3 2 2 3 3 2 3 3 3 3 3 4 7 9 8 5 4 3 3 2 2 3 3 3
0 0 0 0 0 0 0 0 0 0 1 2 2 2 3 5 5 4 4 3 3 3 3 3 3 3 2 3 3 4 4 5 8 9 7 5 4 3 3 2 2 3 3 3
0 0 0 0 0 0 1 1 1 1 2 3 3 3 4 5 5 4 4 3 4 4 4 4 4 3 3 3 4 5 5 6 8 8 6 5 4 3 3 3 3 3 3 3
0 0 0 0 0 1 1 1 2 3 3 4 4 5 5 4 4 4 3 3 4 4 5 4 4 4 4 5 6 6 5 6 6 5 5 4 4 3 3 3 3 3 4 4
1 1 1 0 1 1 1 2 3 4 5 6 6 5 4 3 3 4 4 4 4 5 5 5 5 5 5 5 6 6 5 5 5 4 4 4 4 4 4 4 4 4 4 5
1 1 1 1 1 1 1 2 4 6 7 6 5 4 3 3 3 4 5 5 5 5 5 5 6 6 6 6 6 5 5 5 5 5 4 4 4 4 5 4 4 4 4 5
1 1 1 1 1 1 2 3 6 7 6 5 4 3 3 3 4 5 5 5 5 5 5 5 6 8 8 7 6 5 5 5 5 5 5 5 5 5 6 5 5 5 5 5
1 1 1 1 1 1 2 4 7 7 5 3 3 3 3 4 5 5 4 4 5 5 5 5 7 9 11 10 9 8 7 6 7 7 8 7 6 6 6 6 6 6 6 7
1 1 1 1 1 1 2 4 5 5 4 3 3 4 4 5 6 6 5 5 5 6 7 6 8 11 12 12 11 10 9 9 10 10 10 9 8 7 6 6 5 5 6 8
1 1 1 1 2 2 2 3 3 3 3 3 3 3 4 5 6 7 7 6 6 7 8 8 9 11 11 11 10 9 9 10 11 11 11 10 9 8 7 6 5 5 6 7
1 1 2 2 3 3 3 3 3 3 2 2 2 2 3 4 6 7 9 9 8 9 9 9 10 11 11 10 9 8 8 9 10 10 11 12 10 9 8 8 6 6 6 7
2 2 3 3 4 4 4 4 3 3 3 3 2 2 2 3 4 6 8 9 9 9 9 9 10 11 11 11 10 10 9 10 11 11 12 13 12 10 9 8 7 6 6 6
2 2 3 4 4 4 4 4 4 4 5 4 4 3 3 3 3 5 6 6 7 8 8 8 9 11 12 12 13 13 11 11 13 14 14 13 12 9 6 5 6 6 5 5
2 2 3 3 4 4 5 5 5 5 5 5 4 4 4 3 4 4 4 4 4 5 6 6 7 9 11 13 14 14 11 10 11 12 12 11 9 7 4 3 3 4 4 3
3 2 2 2 3 4 5 5 4 4 4 4 4 4 5 6 5 4 3 3 4 4 4 5 6 8 10 11 11 10 9 8 7 7 7 6 5 5 4 3 2 2 2 2
3 3 2 2 2 2 3 4 4 4 3 3 3 3 5 7 6 4 2 4 6 7 6 7 8 10 10 9 8 7 6 6 5 4 4 3 3 4 4 4 2 2 1 1
5 5 4 2 1 1 2 3 4 3 3 3 2 3 4 5 5 4 2 5 9 11 9 9 10 11 10 8 7 6 5 5 4 4 4 3 3 4 5 5 3 2 1 1
6 6 5 4 2 2 2 2 3 3 2 2 2 2 2 3 4 4 3 6 11 13 10 8 8 8 8 7 6 5 5 5 4 4 4 3 3 4 4 5 4 3 2 1
6 6 6 5 4 2 2 3 3 3 3 3 3 3 3 3 3 4 4 6 10 11 9 7 6 7 7 7 7 8 7 6 5 5 4 4 4 4 4 4 4 4 3 2
4 5 6 6 5 3 3 4 5 5 5 4 4 4 4 5 5 5 5 6 7 8 9 8 8 8 8 8 7 8 7 6 6 6 6 4 4 3 3 4 4 4 3 2
3 3 4 5 5 3 4 5 6 6 7 7 6 6 7 8 8 8 7 7 7 7 8 9 9 8 7 6 5 5 5 5 6 6 5 4 3 3 3 4 4 4 2 1
2 2 2 3 3 3 4 5 5 6 8 10 11 11 10 10 9 8 7 7 6 6 7 8 7 6 4 4 3 4 5 6 6 5 4 3 2 2 2 3 3 3 2 1
2 2 2 1 1 2 3 4 4 4 7 10 12 12 11 9 7 6 5 4 4 4 5 5 3 2 2 3 4 5 6 6 5 4 3 2 2 2 2 2 3 3 2 1
1 1 1 1 1 2 3 3 3 2 4 6 7 8 8 7 5 4 3 2 1 2 2 2 1 0 1 3 5 6 6 5 4 3 3 2 2 1 2 2 2 2 2 1
1 1 1 1 1 2 3 2 2 2 2 3 4 4 4 4 3 3 2 1 1 1 1 1 0 1 2 4 5 5 5 4 3 3 2 2 1 1 1 1 2 2 1 1
1 1 1 1 1 1 1 1 1 1 1 2 2 2 2 2 2 2 2 2 2 2 2 1 1 2 3 4 4 4 3 3 2 2 1 1 1 1 1 1 1 2 1 1
1 1 1 1 1 1 1 1 1 1 1 2 2 2 2 2 3 3 3 3 3 3 3 3 3 3 3 4 3 3 2 2 2 1 1 1 1 1 0 1 1 2 2 2

GEFSNGP_con_maxscp_306.txt.gz
SCP
0 0 0 0 0 0 0 0 1 1 2 3 3 3 5 8 9 7 7 7 7 7 7 7 7 7 7 6 6 7 7 7 8 9 9 12 14 15 13 10 7 5 5 5
0 0 0 0 0 0 0 0 1 1 2 3 3 3 6 11 12 9 8 9 8 8 7 7 7 8 8 7 8 9 9 9 10 10 11 14 16 16 14 10 7 6 6 5
1 0 0 0 1 1 2 2 2 2 2 3 3 4 9 16 17 13 11 11 10 9 8 8 8 9 9 10 11 12 11 11 12 13 13 15 17 16 13 9 7 7 7 7
1 1 1 1 2 3 4 4 3 3 3 3 3 4 9 16 18 15 13 12 11 10 9 9 10 10 11 12 14 14 13 12 13 14 14 14 14 13 11 9 8 8 8 8
1 1 1 2 2 4 5 6 5 3 3 3 3 4 7 12 15 15 12 11 10 9 8 9 10 11 12 13 15 13 11 12 13 14 14 13 12 12 11 10 9 8 8 8
1 1 1 2 2 3 5 6 5 3 4 4 4 6 10 13 15 14 11 9 8 7 7 10 11 11 12 14 14 11 10 11 13 14 14 14 13 12 11 10 9 8 8 8
1 1 1 2 3 3 4 5 4 4 6 8 8 11 14 15 14 12 9 7 6 6 9 11 12 12 12 13 12 10 10 11 13 15 15 15 14 13 12 10 8 8 7 8
1 1 2 3 4 4 4 4 5 7 9 11 12 13 13 12 10 9 8 6 5 7 9 11 13 13 13 13 11 10 11 11 12 15 15 16 16 15 13 11 9 8 8 7
2 2 2 3 3 3 3 4 5 7 9 10 11 11 10 9 9 10 10 10 10 12 15 16 16 15 14 13 12 12 12 12 13 14 16 17 17 16 13 11 9 9 8 8
2 2 3 3 3 3 2 3 4 6 7 8 10 12 12 12 11 12 13 16 19 22 24 24 20 16 14 13 13 14 14 14 13 14 15 17 18 15 12 10 9 8 8 9
3 3 3 3 3 3 3 3 4 5 6 8 11 13 14 14 13 12 14 17 20 23 24 22 18 14 13 14 14 15 15 14 13 12 13 15 16 13 10 8 7 6 7 7
3 3 3 3 3 3 4 5 6 7 7 7 8 10 11 12 12 12 14 16 17 16 15 15 15 15 14 15 16 16 16 15 13 12 12 13 13 9 6 5 4 4 4 4
4 4 3 3 3 3 4 6 7 8 8 7 6 6 7 8 10 11 12 15 17 14 13 15 17 16 15 15 16 16 15 15 14 13 12 13 12 9 5 3 3 2 1 2
4 4 3 3 3 3 4 5 7 7 7 7 6 6 6 8 9 10 11 13 14 14 14 17 18 16 15 15 15 15 14 14 13 13 13 13 14 12 8 5 4 3 1 1
3 3 3 3 3 4 4 4 5 6 6 6 6 6 8 10 10 10 10 11 11 11 12 14 15 15 15 14 14 13 13 12 13 13 13 13 14 13 10 7 5 4 3 2
2 2 2 3 3 3 3 3 3 4 5 6 6 6 8 11 11 11 11 11 10 9 10 11 12 13 14 13 13 12 12 11 12 12 12 12 12 10 9 7 6 5 4 4
2 2 2 3 3 3 2 2 2 3 4 5 5 6 9 10 11 11 11 10 9 8 9 9 10 11 12 11 11 11 11 11 11 12 11 10 9 8 8 8 7 5 5 4
3 3 2 3 3 3 2 2 2 3 5 8 8 8 8 9 10 11 10 9 8 8 8 9 10 11 11 11 10 10 11 11 12 12 11 10 9 8 8 7 6 5 4 3
3 3 3 3 3 3 3 4 6 9 12 16 16 13 10 9 9 9 9 8 7 7 7 8 9 10 11 10 10 11 11 11 12 12 11 10 9 8 6 5 5 4 3 3
3 3 3 4 4 3 4 8 15 22 23 22 21 18 12 9 9 9 8 7 6 6 7 7 8 9 10 10 10 10 10 10 11 12 11 9 8 7 6 5 5 4 4 3
3 3 3 3 3 3 5 13 24 30 28 23 20 17 14 12 12 12 11 10 9 8 8 8 8 8 9 9 9 9 9 10 11 11 10 8 8 7 6 5 5 4 4 4
3 3 3 3 3 3 6 12 20 25 24 21 18 16 15 14 15 15 15 14 12 10 9 8 7 7 8 8 9 8 8 8 9 9 8 7 7 6 6 5 5 3 3 3
5 4 4 3 3 3 4 6 10 13 15 15 15 14 13 12 12 13 13 12 10 9 8 7 5 5 6 7 8 7 6 6 6 6 6 5 5 4 5 5 4 2 2 3
6 6 5 4 3 3 3 3 4 6 8 8 9 9 8 7 7 7 6 6 5 5 4 3 2 3 4 6 6 6 5 5 4 4 4 4 4 4 4 4 3 2 2 3
6 5 4 4 3 3 2 2 2 3 4 5 5 5 4 3 3 3 4 3 2 2 2 2 1 2 4 6 6 6 6 6 5 4 4 4 4 4 4 4 3 2 2 3
5 4 4 3 3 2 2 2 2 2 2 3 3 3 3 2 2 3 3 3 2 2 2 2 2 3 5 6 7 7 7 7 6 5 5 5 4 4 4 3 2 2 2 2
4 4 3 3 2 2 2 2 2 1 1 1 2 3 3 3 2 3 3 3 2 2 2 3 3 4 5 6 6 7 6 6 6 6 5 5 4 4 4 3 2 2 2 1

GEFSNGP_con_maxscp_312.txt.gz
SCP
0 0 0 0 0 0 0 0 0 0 1 2 2 2 4 8 13 17 17 14 11 9 9 8 6 6 5 6 6 6 5 5 3 3 2 2 3 3 4 5 5 5 4 4
0 0 0 0 0 1 1 1 1 1 1 2 3 5 7 11 14 17 17 15 12 10 9 7 6 7 7 8 7 7 6 6 4 3 3 2 3 3 4 5 6 6 5 3
0 0 0 1 1 1 2 2 3 2 1 3 5 7 10 13 15 17 16 14 11 9 8 7 6 7 8 9 8 8 8 7 5 4 3 3 3 3 4 5 6 6 4 3
0 0 1 1 1 2 2 4 4 3 2 3 5 6 7 10 13 14 13 11 9 8 7 6 6 6 7 8 9 8 8 7 5 4 4 4 4 3 4 5 5 5 4 4
0 1 1 1 1 2 3 4 4 4 3 4 4 5 5 5 8 9 9 8 7 7 6 6 6 6 7 8 10 10 9 7 5 5 5 5 4 4 4 4 5 5 5 5
0 1 1 1 2 2 3 3 4 4 4 4 5 5 5 4 5 7 7 7 7 7 6 5 5 5 6 8 11 12 10 8 6 5 5 5 4 4 4 4 5 6 7 7
0 0 1 2 2 2 3 3 4 4 5 6 6 5 5 5 6 8 8 8 7 6 5 4 4 4 6 9 12 13 12 10 8 7 6 5 5 5 5 5 6 7 8 8
0 0 1 2 3 3 3 4 4 5 6 6 6 5 4 4 5 7 8 7 6 5 5 4 3 4 6 8 11 13 12 11 11 10 8 6 6 6 5 6 6 7 7 7
1 1 1 2 4 5 5 5 5 4 5 5 4 3 3 2 3 4 6 6 6 5 5 4 4 4 6 7 9 12 13 14 13 12 10 8 7 6 6 6 6 6 6 6
2 2 2 3 4 6 6 6 5 4 4 4 4 3 2 2 2 3 5 6 7 6 6 5 4 4 5 6 8 12 16 17 16 14 12 10 8 7 6 6 6 6 6 6
2 2 2 3 4 5 5 5 5 5 5 5 5 5 4 3 2 3 4 6 7 7 7 5 4 4 4 5 8 12 17 18 17 15 13 11 9 7 6 5 5 5 6 6
2 2 2 3 4 5 5 5 5 5 6 6 7 7 7 6 4 4 5 5 6 7 8 7 6 6 5 6 7 10 14 17 18 16 14 12 10 8 6 4 3 3 3 4
3 4 4 4 5 5 6 6 6 6 7 7 8 9 9 8 6 5 6 6 7 8 8 8 8 7 7 6 6 8 11 15 17 17 16 14 12 9 6 3 1 1 1 2
5 6 7 6 5 6 6 6 6 7 6 7 7 8 8 7 5 5 6 7 7 7 7 7 7 6 6 6 5 6 9 13 16 18 18 17 14 11 8 5 2 1 0 0
5 6 6 6 5 6 5 5 5 5 4 5 5 5 5 4 3 3 3 5 5 5 5 5 5 5 5 5 5 6 8 12 15 18 19 18 17 13 9 6 4 2 1 0
4 4 4 4 6 6 5 4 4 3 3 3 3 3 3 2 2 1 1 2 3 3 3 4 4 4 4 5 5 5 7 10 14 17 19 19 17 14 10 7 5 3 1 1
3 3 3 4 5 6 5 4 3 3 3 2 2 2 2 1 1 1 1 1 1 2 2 3 3 3 4 4 5 5 7 9 12 16 19 20 17 14 10 7 4 3 2 1
2 3 3 4 5 6 5 5 4 3 3 2 2 1 1 1 1 1 1 1 1 1 1 2 2 2 3 4 4 5 6 8 12 16 19 19 17 13 10 6 4 3 1 1
4 4 5 6 6 7 6 5 5 4 3 3 2 2 2 2 2 1 1 1 1 1 1 1 2 2 2 3 3 4 6 8 12 16 19 18 16 13 9 6 4 3 1 0
5 5 6 6 6 6 5 4 4 3 3 2 2 2 3 2 2 2 1 1 1 1 1 1 2 2 2 2 2 3 5 8 12 16 17 17 16 13 9 6 4 3 1 0
3 4 4 4 3 3 2 2 2 1 1 1 1 1 1 2 2 1 1 1 1 1 1 1 2 2 1 1 1 2 4 8 13 15 16 16 16 13 8 5 4 3 1 0
1 2 2 2 2 1 1 1 1 1 1 0 0 0 0 1 1 0 0 1 1 0 0 1 1 1 1 1 1 2 5 10 13 14 13 13 13 10 7 5 4 3 2 1
1 2 2 2 1 1 1 1 1 1 1 0 0 0 0 0 0 0 0 0 0 0 0 0 1 1 1 2 4 5 8 11 12 12 10 10 10 8 5 5 4 3 2 1
2 2 2 2 1 1 1 1 1 1 0 0 0 0 0 0 0 0 0 0 0 0 0 0 0 1 2 4 6 7 9 10 10 10 8 8 7 6 4 4 4 4 3 2
2 2 2 2 2 1 1 1 1 0 0 0 0 0 0 0 0 0 0 0 0 0 0 1 1 1 3 5 6 7 8 8 8 7 6 5 4 4 4 4 5 4 3 2
2 2 3 2 2 1 1 1 1 0 0 0 0 0 0 0 0 0 0 0 1 1 1 1 1 2 3 4 4 4 5 5 4 3 2 2 2 2 4 4 5 4 3 2
2 2 2 2 1 1 1 1 1 0 0 0 0 0 0 0 0 0 1 1 1 1 1 1 1 1 2 2 2 2 2 2 1 1 1 1 1 2 4 5 5 4 3 2